Regional Weather Roundup
Issued by NWS

Home | Current Version | Previous Version | Graphics & Text | Print | Product List | Glossary Off
Versions: 1 2 3 4 5 6 7 8 9 10 11 12 13 14 15 16 17 18 19 20 21 22 23 24 25 26 27

000
ASUS45 KBOU 251607
RWRCO

WEATHER ROUNDUP FOR COLORADO
NATIONAL WEATHER SERVICE DENVER/BOULDER CO
1000 AM MDT MON JUL 25 2016

NOTE: "FAIR" INDICATES FEW OR NO CLOUDS BELOW 12000 FEET WITH NO
SIGNIFICANT WEATHER AND/OR OBSTRUCTIONS TO VISIBILITY.

COZ001>005-013-030-031-251700-
...NORTHWEST COLORADO...

CITY           SKY/WX    TMP DP  RH WIND       PRES   REMARKS
CRAIG          FAIR      75  42  30 CALM      30.29F
HAYDEN         FAIR      72  43  35 E3        30.31F
MEEKER         FAIR      73  41  31 CALM      30.30F
MOUNT WERNER   NOT AVBL
STEAMBOAT SPGS FAIR      67  44  43 CALM      30.34F
WALDEN         FAIR      66  39  37 CALM      30.44S
$$

COZ006>008-011-251700-
...WEST CENTRAL VALLEYS...

CITY           SKY/WX    TMP DP  RH WIND       PRES   REMARKS
GRAND JUNCTION FAIR      80  43  26 SE13      30.18R
MONTROSE       FAIR      77  48  35 W7        30.27F
EAGLE          SUNNY     64  41  42 CALM      30.38F
RIFLE          FAIR      74  44  34 CALM      30.26F
DELTA          FAIR      82  42  24 E3        30.23F
NUCLA          NOT AVBL
$$

COZ017>023-064>068-251700-
...SOUTHWEST COLORADO...

CITY           SKY/WX    TMP DP  RH WIND       PRES   REMARKS
DURANGO        FAIR      73  48  41 N3        30.37S
CORTEZ         FAIR      78  50  37 CALM      30.29S
PAGOSA SPRINGS FAIR      74  40  29 CALM      30.45S
TELLURIDE      FAIR      68  47  47 CALM      30.55S
WOLF CREEK PAS FAIR      59  37  44 CALM      30.79R
$$

COZ009-010-012-014-032>034-037-058>063-251700-
...CENTRAL COLORADO...

CITY           SKY/WX    TMP DP  RH WIND       PRES   REMARKS
ASPEN          FAIR      69  42  37 N8        30.41S
BUENA VISTA    FAIR      68  42  39 CALM      30.45F
COPPER MTN     FAIR      61  28  29 SW5       30.76S
BERTHOUD PASS  FAIR      54  37  54 NW21G29   30.77F
COTTONWOOD PAS FAIR      68  41  37 E5        30.59F
GUNNISON       FAIR      64  39  39 NW3       30.48F
KREMMLING      FAIR      61  43  51 CALM      30.43F
LEADVILLE      FAIR      63  40  42 VRB3      30.58F
MONARCH PASS   FAIR      57  34  41 MISG      30.87S
SALIDA         FAIR      71  45  38 CALM      30.49F
SUNLIGHT       FAIR      64  43  45 CALM      30.68S
WILKERSON PASS FAIR      61  34  36 SW6       30.73S
$$

COZ069>075-251700-
...SAN LUIS VALLEY/SANGRE DE CRISTO MOUNTAINS...

CITY           SKY/WX    TMP DP  RH WIND       PRES   REMARKS
ALAMOSA        FAIR      72  48  42 VRB6      30.43F
LA VETA PASS   FAIR      63  43  48 S7        30.61S
SAGUACHE       FAIR      70  46  43 S5        30.46S
$$

COZ035-036-038>040-251700-
...NORTHERN COLORADO FRONT RANGE...

CITY           SKY/WX    TMP DP  RH WIND       PRES   REMARKS
DENVER INTL AP FAIR      74  55  51 E8        30.22S
DMNS CITY PARK   N/A     74  54  48 E6        30.21S
AURORA         MOSUNNY   77  54  45 N8        30.23S
FRONT RANGE AP MOSUNNY   77  55  47 NE7       30.24R
ERIE MUNI ARPT FAIR      73  56  56 E3        30.20F
BOULDER MUN AP FAIR      72  55  56 SE3       30.21F
CENTENNIAL     FAIR      81  44  27 VRB6      30.24R
BROOMFIELD     MOSUNNY   72  57  60 E5        30.24S
LONGMONT       FAIR      75  58  56 CALM      30.21F
$$

COZ041-046-047-076>085-087-088-251700-
...PIKES PEAK/PALMER DIVIDE AND SOUTHERN FOOTHILLS...

CITY           SKY/WX    TMP DP  RH WIND       PRES   REMARKS
COLO. SPRINGS  FAIR      69  57  65 VRB3      30.32F
A. F. ACADEMY  FAIR      70  55  58 S7        30.32F
SCHRIEVER AFB  NOT AVBL
ELLICOTT       FAIR     N/A N/A N/A SW8       30.29F
FALCON         NOT AVBL
FORT CARSON    FAIR      68  57  67 SE3       30.28F
LIMON          FAIR      76  55  48 S12       30.24F
MONUMENT HILL  FAIR      75  54  46 S8        30.35S
TRINIDAD       NOT AVBL
$$

COZ042>045-048>051-090-091-251700-
...NORTHEAST COLORADO...

CITY           SKY/WX    TMP DP  RH WIND       PRES   REMARKS
GREELEY ARPT   FAIR      73  59  60 SE9       30.20F
AKRON          FAIR      73  58  59 SE16      30.21S
BURLINGTON     FAIR      72  61  68 SE9       30.22F
WRAY           NOT AVBL
STERLING       FAIR      77  59  53 S12       30.18F
HOLYOKE        FAIR     N/A N/A N/A W12       30.20F
FORT MORGAN    FAIR      73  57  58 E8        30.20F
$$

COZ086-089-092>099-251700-
...SOUTHEAST COLORADO...

CITY           SKY/WX    TMP DP  RH WIND       PRES   REMARKS
PUEBLO         FAIR      77  59  53 S6        30.22F
LA JUNTA       FAIR      74  62  66 SW7       30.20F
LAMAR          FAIR      78  60  53 S3        30.18S
SPRINGFIELD      N/A     80  58  46 CALM      30.20F
$$




USA.gov is the U.S. government's official web portal to all federal, state and local government web resources and services.